DW3435 Weather Reports


Display with metric or nautical units.
time (UTC)temp
F
wind
direction
speed
MPH
gust
MPH
rain 1hr
in
rain 24hr
in
rain mn
in
humidity
%
barometer
mb
20181121114645 27 254 0.0 0.0 0.00 0.00 0.00 95 1026.3
20181121113108 27 254 0.0 0.0 0.00 0.00 0.00 94 1026.2
20181121111645 27 254 0.0 0.0 0.00 0.00 0.00 94 1026.2
20181121110136 27 254 0.0 0.0 0.00 0.00 0.00 94 1026.0
20181121104623 27 254 0.0 0.0 0.00 0.00 0.00 94 1025.9
20181121103128 28 254 0.0 0.0 0.00 0.00 0.00 93 1025.9
20181121101603 28 254 0.0 0.0 0.00 0.00 0.00 93 1025.7
20181121100059 28 254 0.0 0.0 0.00 0.00 0.00 93 1025.7
20181121094546 28 254 0.0 0.0 0.00 0.00 0.00 93 1025.5
20181121093047 29 254 0.0 0.0 0.00 0.00 0.00 93 1025.3
20181121091537 29 254 0.0 0.0 0.00 0.00 0.00 93 1025.4
20181121090057 29 254 0.0 0.0 0.00 0.00 0.00 93 1025.3
20181121084559 29 254 0.0 0.0 0.00 0.00 0.00 92 1025.2
20181121083046 30 254 0.0 0.0 0.00 0.00 0.00 91 1025.1
20181121081541 30 254 0.0 0.0 0.00 0.00 0.00 91 1025.1
20181121080056 31 254 0.0 0.0 0.00 0.00 0.00 91 1025.1
20181121074528 31 254 0.0 0.0 0.00 0.00 0.00 90 1025.1
20181121073021 32 254 0.0 0.0 0.00 0.00 0.00 90 1025.2
20181121071534 32 254 0.0 0.0 0.00 0.00 0.00 89 1025.2
20181121070015 33 254 0.0 0.0 0.00 0.00 0.00 88 1025.1
20181121064510 33 254 0.0 0.0 0.00 0.00 0.00 87 1025.1
20181121063008 34 254 0.0 0.0 0.00 0.00 0.00 86 1025.3
20181121061507 35 254 0.0 0.0 0.00 0.00 0.00 85 1025.3
20181121054711 37 254 0.0 0.0 0.00 0.00 0.00 83 1025.2
20181121053200 38 254 0.0 0.0 0.00 0.00 0.00 82 1025.0
20181121051659 38 254 0.0 0.0 0.00 0.00 0.00 80 1025.1
20181121050142 39 254 0.0 0.0 0.00 0.00 0.00 81 1025.0
20181121044641 39 254 0.0 0.0 0.00 0.00 0.00 79 1025.1
20181121043127 39 254 0.0 0.0 0.00 0.00 0.00 79 1025.0
20181121041629 39 254 0.0 0.0 0.00 0.00 0.00 78 1024.9
20181121040100 40 254 0.0 0.0 0.00 0.00 0.00 80 1024.9
20181121034629 40 254 0.0 0.0 0.00 0.00 0.00 77 1024.8
20181121033112 40 254 0.0 4.0 0.00 0.00 0.00 75 1024.8
20181121031557 41 311 0.0 0.0 0.00 0.00 0.00 75 1024.8
20181121030142 42 311 0.0 0.0 0.00 0.00 0.00 75 1024.7
20181121024602 42 311 0.0 3.0 0.00 0.00 0.00 71 1024.7
20181121023054 42 269 0.0 2.0 0.00 0.00 0.00 71 1024.6
20181121021535 42 346 1.0 8.0 0.00 0.00 0.00 71 1024.5
20181121020051 42 348 0.0 0.0 0.00 0.00 0.00 71 1024.4
20181121014549 42 252 0.0 0.0 0.00 0.00 0.00 72 1024.4
20181121013104 42 252 0.0 0.0 0.00 0.00 0.00 74 1024.3
20181121011612 42 253 0.0 0.0 0.00 0.00 0.00 75 1024.2
20181121010056 42 253 0.0 0.0 0.00 0.00 0.00 77 1024.1
20181121004554 42 253 0.0 0.0 0.00 0.00 0.00 78 1024.1
20181121003043 42 253 0.0 0.0 0.00 0.00 0.00 77 1024.1
20181121001542 43 252 0.0 0.0 0.00 0.00 0.00 75 1023.9
20181121000046 43 252 0.0 0.0 0.00 0.00 0.00 74 1023.9
20181120234559 43 253 0.0 0.0 0.00 0.00 0.00 72 1023.8
20181120233106 43 253 0.0 0.0 0.00 0.00 0.00 70 1023.7
20181120231542 43 253 0.0 2.0 0.00 0.00 0.00 69 1023.6
20181120230031 43 36 0.0 1.0 0.00 0.00 0.00 69 1023.4
20181120224527 44 82 0.0 5.0 0.00 0.00 0.00 68 1023.1
20181120223016 44 169 0.0 0.0 0.00 0.00 0.00 69 1023.0
20181120221517 44 168 0.0 0.0 0.00 0.00 0.00 68 1022.9
20181120220009 44 170 0.0 0.0 0.00 0.00 0.00 67 1022.8
20181120214538 44 220 0.0 1.0 0.00 0.00 0.00 68 1022.8
20181120213005 45 101 0.0 6.0 0.00 0.00 0.00 67 1022.8
20181120211502 45 360 0.0 9.0 0.00 0.00 0.00 71 1022.6
20181120210221 45 360 0.0 11.0 0.00 0.00 0.00 69 1022.5
20181120204725 46 123 1.0 6.0 0.00 0.00 0.00 67 1022.5
20181120203233 46 219 2.0 7.0 0.00 0.00 0.00 67 1022.3
20181120201628 47 152 0.0 5.0 0.00 0.00 0.00 68 1022.2
20181120200138 48 346 0.0 3.0 0.00 0.00 0.00 68 1022.0
20181120194717 48 207 1.0 9.0 0.00 0.00 0.00 66 1021.8
20181120193310 48 9 0.0 8.0 0.00 0.00 0.00 65 1021.7
20181120191648 48 74 0.0 5.0 0.00 0.00 0.00 70 1021.7
20181120190136 46 21 1.0 6.0 0.00 0.00 0.00 71 1021.8
20181120184800 47 223 4.0 10.0 0.00 0.00 0.00 70 1021.8
20181120183132 48 90 0.0 3.0 0.00 0.00 0.00 68 1021.8
20181120181652 50 76 0.0 6.0 0.00 0.00 0.00 63 1021.7
20181120180115 51 26 0.0 5.0 0.00 0.00 0.00 66 1021.6
20181120174637 48 96 2.0 8.0 0.00 0.00 0.00 68 1021.8
20181120173127 47 67 0.0 12.0 0.00 0.00 0.00 72 1022.1
20181120171629 48 65 0.0 4.0 0.00 0.00 0.00 69 1022.3
20181120170121 48 209 0.0 11.0 0.00 0.00 0.00 66 1022.2
20181120164657 49 163 0.0 5.0 0.00 0.00 0.00 71 1022.1
20181120163313 48 93 0.0 7.0 0.00 0.00 0.00 71 1022.3
20181120161654 47 42 1.0 11.0 0.00 0.00 0.00 73 1022.5
20181120160128 47 329 1.0 10.0 0.00 0.00 0.00 71 1022.3
20181120154626 48 76 0.0 4.0 0.00 0.00 0.00 73 1022.1
20181120153121 46 146 1.0 6.0 0.00 0.00 0.00 76 1022.1
20181120151545 46 113 0.0 4.0 0.00 0.00 0.00 77 1022.1
20181120150058 46 327 0.0 4.0 0.00 0.00 0.00 77 1021.8
20181120144644 46 48 0.0 3.0 0.00 0.00 0.00 76 1021.6
20181120143112 46 5 0.0 1.0 0.00 0.00 0.00 75 1021.3
20181120141546 46 66 0.0 5.0 0.00 0.00 0.00 76 1021.1
20181120140026 46 346 0.0 7.0 0.00 0.00 0.00 77 1020.9
20181120134537 45 105 0.0 6.0 0.00 0.00 0.00 79 1020.7
20181120133056 45 132 1.0 5.0 0.00 0.00 0.00 79 1020.5
20181120131529 45 152 0.0 5.0 0.00 0.00 0.00 80 1020.4
20181120130017 45 188 0.0 0.0 0.00 0.00 0.00 82 1020.1
20181120124513 45 191 0.0 3.0 0.00 0.00 0.00 82 1019.9
20181120123009 45 191 0.0 0.0 0.00 0.00 0.00 83 1019.8
20181120121510 45 191 0.0 0.0 0.00 0.00 0.00 86 1019.6
20181120120009 45 191 0.0 3.0 0.00 0.00 0.00 85 1019.4